Theta_e
321 323 326 324 323 322 322 323 324 324 324 325 326 326 327 327 326 327 326 326 325 325 324 323 323 323 321 320 321 327 330 343 346 348 350 348 348 346 344 342 341 342 341 338
324 326 324 321 321 322 323 324 325 325 325 326 327 328 328 328 327 326 326 325 324 323 322 323 323 324 322 320 321 328 336 343 346 349 348 349 348 347 345 343 341 342 340 336
323 323 321 320 322 323 324 324 325 326 326 327 329 328 328 328 327 325 324 322 323 324 323 322 323 324 322 321 321 324 340 342 346 348 348 348 349 347 345 343 342 341 338 335
322 322 320 321 322 323 324 323 324 326 328 330 329 333 330 328 327 327 325 324 324 325 325 325 322 323 322 321 320 322 338 340 348 348 349 348 348 347 345 344 343 343 339 335
323 322 321 322 323 322 324 324 325 327 328 330 331 334 329 328 329 327 327 325 325 324 324 324 324 322 322 321 321 322 332 341 348 348 347 345 347 346 345 343 343 343 339 335
321 321 320 321 321 322 323 325 326 326 328 336 330 328 328 328 327 326 326 325 326 325 324 323 323 323 322 321 320 322 330 341 346 348 347 348 346 347 344 343 344 344 342 338
323 322 321 320 321 322 324 327 332 330 331 329 326 329 328 326 325 324 325 325 325 325 324 322 324 322 323 321 321 321 331 339 343 348 348 347 345 345 344 343 344 343 342 341
324 325 322 321 321 322 324 326 331 331 330 328 326 332 330 325 324 323 322 322 325 326 325 324 322 319 320 320 320 320 329 339 343 345 347 347 346 345 344 342 343 343 343 342
323 323 321 321 321 322 324 327 324 329 327 330 328 325 329 327 326 324 322 322 324 325 326 327 322 319 319 320 319 320 328 336 342 343 345 346 345 344 343 343 343 343 342 342
319 323 321 321 322 323 324 323 327 328 329 330 326 327 332 328 326 324 322 323 324 324 326 316 323 319 319 319 319 322 334 337 343 342 345 346 344 343 342 343 343 340 341 343
318 321 322 322 323 323 323 324 324 327 327 330 333 328 324 327 324 321 319 320 322 323 328 321 322 319 319 319 320 338 339 337 342 342 344 344 343 344 344 341 339 340 343 341
319 321 323 323 323 321 321 322 323 328 330 328 331 328 325 324 322 320 319 318 319 323 329 331 319 319 318 320 325 332 337 339 343 342 342 343 342 342 342 342 344 343 342 339
316 321 324 324 324 323 323 322 323 325 327 330 329 329 323 323 321 320 317 316 317 322 328 333 320 319 320 322 331 334 340 341 343 341 343 342 342 341 341 342 343 340 339 336
317 321 323 331 323 321 322 323 322 325 328 331 330 327 324 325 322 322 317 315 317 320 324 329 334 325 323 331 336 336 341 343 342 339 343 342 342 337 341 339 338 336 336 336
320 323 321 320 321 323 323 321 322 325 326 326 325 325 323 324 322 321 316 315 316 317 320 322 328 332 331 332 339 336 341 342 341 339 339 337 338 338 337 337 337 336 335 335
320 322 321 322 321 322 322 322 323 322 324 323 323 324 322 323 321 319 316 314 315 315 317 320 327 330 320 327 336 338 338 339 340 339 338 333 335 336 336 337 337 334 331 330
320 321 322 322 322 322 327 325 322 321 321 324 324 322 321 324 323 319 316 314 314 314 316 318 323 328 329 334 330 333 333 337 339 338 337 335 334 333 333 335 333 331 329 325
321 321 321 322 322 325 323 322 321 321 323 323 321 321 321 322 321 320 316 314 313 314 315 319 322 326 329 326 326 325 328 330 336 337 336 335 334 333 327 331 331 326 324 323
320 321 322 322 322 320 322 322 321 321 323 320 321 320 319 320 320 321 317 314 313 315 316 318 320 321 324 326 325 326 324 322 330 333 332 332 332 328 326 325 323 322 321 321
321 321 322 322 322 331 323 322 318 316 324 320 319 319 319 320 323 321 317 313 313 314 316 316 319 320 321 322 323 325 325 326 331 329 331 330 332 332 320 318 318 319 319 317
321 322 323 321 322 322 323 321 317 320 323 319 318 319 318 321 322 318 316 315 312 314 315 316 317 318 318 324 324 317 316 320 322 328 322 323 322 320 318 317 317 317 316 313
321 321 322 323 324 328 321 319 320 319 318 318 318 318 318 318 320 319 317 317 312 311 312 315 316 316 317 319 320 316 315 311 315 317 320 318 316 316 316 316 314 314 310 304
319 320 321 319 323 322 318 319 317 315 315 314 318 317 318 318 319 319 316 314 314 311 309 311 313 314 314 316 317 318 315 314 315 314 313 313 313 314 315 315 311 309 306 301
317 316 319 320 319 319 318 317 317 317 318 318 317 318 318 318 319 318 315 313 313 313 312 309 310 312 313 313 314 315 311 310 311 311 310 312 315 313 311 309 307 304 301 302
317 316 317 317 317 317 318 316 316 317 317 317 317 317 317 318 318 317 314 312 312 312 312 308 308 308 309 310 311 309 307 307 308 307 308 309 309 307 304 302 302 302 301 300
315 317 317 318 316 318 318 316 316 316 317 317 317 317 317 317 318 317 314 312 312 311 309 308 307 306 305 304 304 304 306 306 306 303 303 304 302 301 301 301 300 299 299 299
Wind_Speed
4 8 11 13 11 15 16 18 21 20 15 18 20 25 26 25 28 28 31 30 30 29 30 32 33 31 31 31 29 29 34 35 36 38 42 39 35 32 29 27 27 27 25 24
11 15 5 9 12 14 16 19 19 18 18 21 24 26 18 18 10 18 17 18 20 20 22 27 31 32 33 30 31 29 34 34 39 37 40 40 38 33 31 27 27 27 26 29
10 13 8 10 12 14 14 15 17 23 24 26 21 19 12 16 18 6 9 14 14 16 19 22 28 30 32 32 31 33 32 36 40 40 38 44 35 33 33 30 27 28 27 27
11 4 10 11 12 11 15 17 19 23 23 17 19 17 15 12 13 8 11 14 21 26 31 28 23 28 31 33 33 36 32 40 41 44 37 43 39 38 36 32 27 27 28 26
11 13 10 10 9 12 17 15 21 26 21 14 15 10 11 17 21 24 24 33 32 33 34 32 28 27 33 34 35 34 34 37 42 46 42 45 40 37 35 32 30 28 28 27
14 11 4 9 11 15 11 17 22 19 15 6 7 12 9 13 17 21 25 36 35 37 35 34 32 31 33 36 36 35 36 35 39 45 44 45 44 38 36 34 32 28 26 25
19 6 2 4 17 16 7 14 6 5 3 11 23 13 5 12 16 19 23 34 36 37 36 33 27 29 35 38 38 36 35 35 36 44 45 43 44 36 34 37 31 31 27 25
9 2 3 14 12 12 12 7 1 4 9 19 22 5 2 7 20 28 34 34 36 37 37 32 31 22 33 36 38 37 36 33 32 38 41 43 42 36 33 35 34 31 29 28
10 7 20 10 11 8 6 5 7 3 8 8 5 10 2 17 25 30 38 35 35 40 42 42 18 16 25 32 36 36 36 32 29 33 37 41 40 38 34 35 32 30 28 30
7 9 13 14 18 5 9 8 6 1 5 9 12 14 13 24 27 31 32 32 39 44 39 27 42 11 21 27 28 31 28 27 29 33 36 37 36 37 33 34 32 30 30 32
14 5 13 20 5 4 6 8 6 3 3 3 6 11 9 23 28 25 25 38 36 37 47 52 15 11 18 23 30 25 25 28 32 34 31 32 34 31 27 29 30 32 35 31
8 8 11 20 14 2 4 12 9 5 6 7 6 8 17 22 25 25 26 36 38 34 35 37 11 14 18 25 30 25 24 26 29 31 29 31 32 30 33 33 34 39 35 35
12 4 9 14 8 4 16 15 12 14 10 13 2 7 22 21 26 27 29 36 40 35 33 33 3 16 23 27 26 24 24 26 29 36 31 33 34 37 38 41 41 40 39 34
4 10 9 8 16 17 17 18 16 8 7 9 7 20 24 23 24 22 31 34 35 34 31 32 23 12 24 19 16 21 24 27 30 35 29 36 36 31 34 37 34 32 30 30
3 9 16 15 22 19 17 15 14 10 13 4 12 20 23 18 19 13 25 32 33 36 35 33 25 15 12 5 13 19 20 25 29 35 31 40 26 33 40 34 28 28 32 34
7 11 14 17 22 13 18 10 5 13 9 4 14 18 17 22 28 19 24 31 30 34 36 33 18 13 2 10 7 15 23 26 33 36 36 34 37 38 31 30 34 39 38 37
13 11 12 15 18 18 10 6 8 12 9 1 9 18 19 21 19 13 24 29 28 31 34 30 22 9 8 8 2 10 13 28 31 36 40 44 44 42 40 36 38 35 34 34
11 13 11 12 14 8 8 7 6 12 6 6 12 16 20 18 25 8 23 26 29 33 32 30 24 16 8 8 8 8 8 27 34 31 31 32 33 35 39 37 34 37 36 36
9 9 10 7 10 15 7 5 13 15 9 12 12 15 24 26 23 14 25 25 26 26 28 24 21 17 11 7 8 7 9 23 36 33 30 29 23 30 30 38 42 44 44 41
5 8 6 11 4 3 5 10 17 20 3 12 17 14 18 28 13 12 29 21 23 24 24 19 16 15 12 4 7 12 19 22 22 25 27 27 25 29 40 46 48 47 43 40
8 9 11 10 13 10 13 11 22 14 10 23 19 16 19 12 10 19 25 17 16 18 19 19 16 11 8 6 5 17 24 25 25 32 33 33 36 43 49 48 46 45 42 39
13 8 10 8 11 5 20 21 16 14 20 20 14 15 15 17 16 18 20 27 21 15 14 16 14 12 7 5 2 10 18 24 27 29 32 35 41 46 47 48 45 42 40 37
7 5 7 6 11 26 22 17 26 25 23 20 11 13 19 15 12 15 14 19 23 19 15 12 10 6 5 3 2 8 13 16 22 27 33 39 43 45 43 43 42 40 35 33
13 18 13 14 13 16 27 20 11 15 14 9 11 9 17 14 8 13 11 15 17 18 18 16 9 3 3 5 7 12 18 22 29 36 42 46 47 46 43 39 35 33 28 22
17 18 19 21 23 27 16 9 16 15 16 10 12 13 16 15 9 11 9 12 13 13 13 13 8 5 4 7 13 19 25 30 39 45 47 48 46 45 42 37 29 23 21 18
22 20 12 13 21 21 16 17 18 18 16 15 11 13 13 14 10 8 7 9 11 10 10 9 7 6 7 11 16 21 28 37 45 47 49 49 47 43 40 37 33 27 26 26
Wind_Direction
284 285 265 354 317 301 294 286 292 288 302 298 302 297 293 288 283 279 278 277 275 275 268 259 255 254 246 237 236 239 228 216 210 213 203 201 202 201 201 200 197 203 192 195
249 234 359 324 296 293 289 291 298 315 326 311 296 290 297 292 314 303 292 295 288 283 286 271 258 250 246 234 234 231 224 218 212 211 209 203 198 204 200 198 197 197 191 196
300 291 8 301 301 301 299 301 330 316 313 296 295 305 327 325 283 288 274 271 284 282 288 278 270 249 241 235 233 231 223 219 217 207 212 204 201 204 199 196 193 200 193 199
279 27 295 301 296 311 303 338 319 308 308 307 319 304 301 306 309 359 318 319 320 320 308 291 263 253 239 237 231 230 226 222 221 210 204 200 201 198 194 195 198 194 187 194
283 319 316 299 338 323 301 316 298 299 296 317 313 307 313 346 355 350 338 334 322 309 297 284 273 251 245 236 231 228 226 226 220 212 206 206 199 195 193 194 195 190 186 193
273 283 275 330 304 281 310 288 316 294 252 285 272 325 313 5 348 336 332 321 312 305 297 283 266 256 246 240 228 220 222 222 220 214 208 200 196 195 189 189 186 190 186 182
299 165 140 266 317 319 306 358 324 323 321 301 341 320 86 18 355 341 328 321 312 306 294 282 279 262 242 232 224 215 213 216 221 212 203 198 197 196 191 186 189 184 182 178
349 221 30 356 323 316 307 28 4 296 316 309 301 283 8 28 359 339 327 320 322 317 298 288 281 263 243 220 219 209 205 211 217 212 206 201 194 193 193 189 187 186 182 182
322 282 339 275 317 307 342 348 337 252 265 269 259 310 177 347 344 341 335 327 321 316 305 302 266 257 229 211 211 203 202 205 212 209 204 197 192 188 190 188 185 185 180 180
335 301 293 332 291 191 293 15 311 351 303 299 324 317 358 343 345 343 333 326 324 318 322 310 288 212 203 200 195 204 188 204 210 206 199 193 188 186 187 183 183 182 175 182
312 292 294 291 273 284 161 333 311 276 244 285 305 320 21 10 352 343 323 319 326 325 324 318 205 203 191 193 190 180 189 198 206 202 191 189 181 179 181 179 173 171 181 181
359 303 301 289 298 91 324 323 337 312 287 241 263 285 358 6 359 329 324 327 331 331 319 306 134 176 191 195 188 183 191 198 197 200 189 185 174 177 166 171 175 176 177 172
315 272 317 321 103 39 325 326 316 299 298 282 331 291 323 0 345 338 345 335 332 337 334 336 123 165 183 192 176 180 185 192 195 198 179 181 175 181 174 180 175 180 181 180
272 281 252 277 297 303 295 303 290 325 325 311 308 309 332 358 344 334 346 339 336 341 345 338 335 128 230 177 158 182 195 191 193 191 179 174 175 182 183 182 180 180 181 179
239 270 300 305 290 290 282 278 300 331 320 350 305 315 357 351 333 342 344 339 344 347 351 353 335 352 61 149 143 186 195 188 180 180 176 168 168 181 174 168 172 176 172 168
291 293 295 303 289 275 282 288 359 308 344 311 332 332 348 352 344 352 352 343 350 346 347 353 8 359 157 299 179 191 198 177 185 184 166 174 184 185 180 172 167 169 169 166
287 289 299 306 312 308 294 39 327 338 334 283 326 327 335 351 345 347 357 343 348 347 347 352 10 48 174 83 143 163 151 174 168 176 166 165 166 168 169 167 163 165 164 158
268 300 296 293 307 327 34 87 324 319 62 18 320 350 333 4 338 1 8 348 349 349 355 359 13 25 58 118 103 85 145 167 171 166 162 154 154 157 159 158 161 160 157 152
212 276 298 289 335 302 273 34 349 338 351 347 348 359 338 347 342 11 359 351 353 357 1 5 0 12 23 54 99 76 189 193 158 155 155 154 155 156 159 156 154 153 150 146
245 214 248 301 301 282 33 17 347 317 313 305 13 5 340 347 346 326 339 355 354 2 3 18 18 357 17 58 84 347 227 206 175 157 156 157 176 174 160 153 149 150 147 140
305 286 250 267 280 288 32 356 338 327 344 337 359 354 342 352 348 323 326 348 7 357 8 14 24 33 28 28 157 163 162 159 166 167 164 157 160 159 157 151 147 144 140 138
296 294 291 311 301 296 356 331 331 324 314 326 353 339 337 344 341 337 334 337 355 6 0 15 19 33 29 21 254 174 152 148 157 160 157 155 154 153 151 146 142 140 138 139
277 231 315 293 300 319 315 324 321 307 299 302 350 339 330 341 349 342 336 337 341 350 7 17 22 26 66 74 166 191 169 160 155 150 148 151 149 145 142 140 139 139 138 130
284 275 273 279 272 296 315 310 320 337 330 7 325 341 320 348 1 344 338 342 346 346 356 8 24 20 87 126 149 173 166 163 154 149 146 145 143 141 138 133 131 127 125 130
288 294 284 280 280 280 295 332 334 330 323 335 331 328 342 344 12 349 339 348 351 350 353 3 53 86 113 155 155 164 160 158 151 144 142 140 136 130 124 117 114 126 130 133
265 267 272 278 300 303 296 314 317 318 312 317 334 331 343 343 9 2 344 349 352 355 358 6 43 93 133 146 146 156 161 156 147 132 127 132 129 124 127 134 133 131 135 141